Retour au catalogue

USA 120

ActifMilitaireLEO
NORAD 23907·PAYLOAD·🇺🇸 United States

Lancé May 12, 1996 depuis Vandenberg Space Force Base

Loading…

Prochains Passages (prochaines 24 heures)

TLE

FraisSource: Space-Track

Époque: Sep 14, 2026, 11:14 UTC

1 23907U 96029B   26257.46860622  .00000606  00000-0  11521-3 0  9998
2 23907  63.3194 318.9225 0853553  51.2423 316.1785 13.46662601115671

Suivez USA 120 en temps réel avec AllMySat

Download on the App Store